TimeMST,TemperatureF,Dew PointF,Humidity,Sea Level PressureIn,VisibilityMPH,Wind Direction,Wind SpeedMPH,Gust SpeedMPH,PrecipitationIn,Events,Conditions,WindDirDegrees,DateUTC
12:51 AM,93.0,45.0,19,29.68,10.0,NW,3.5,-,N/A,,Clear,310,2013-06-15 07:51:00
1:51 AM,91.0,45.0,20,29.68,10.0,NNE,3.5,-,N/A,,Clear,20,2013-06-15 08:51:00
2:51 AM,90.0,44.1,20,29.69,10.0,NNW,5.8,-,N/A,,Clear,330,2013-06-15 09:51:00
3:51 AM,84.9,46.0,26,29.71,10.0,SW,5.8,-,N/A,,Clear,230,2013-06-15 10:51:00
4:51 AM,84.9,37.9,19,29.73,10.0,SW,6.9,-,N/A,,Scattered Clouds,230,2013-06-15 11:51:00
5:51 AM,84.9,35.1,17,29.76,10.0,SW,4.6,-,N/A,,Scattered Clouds,230,2013-06-15 12:51:00
6:51 AM,87.1,35.1,16,29.78,10.0,Calm,Calm,-,N/A,,Scattered Clouds,0,2013-06-15 13:51:00
7:51 AM,89.1,42.1,19,29.79,10.0,East,3.5,-,N/A,,Scattered Clouds,100,2013-06-15 14:51:00
8:51 AM,91.9,42.1,18,29.80,10.0,Variable,3.5,-,N/A,,Scattered Clouds,0,2013-06-15 15:51:00
9:51 AM,95.0,37.9,14,29.79,10.0,Variable,3.5,-,N/A,,Scattered Clouds,0,2013-06-15 16:51:00
10:51 AM,98.1,39.0,13,29.79,10.0,SSW,4.6,-,N/A,,Partly Cloudy,210,2013-06-15 17:51:00
11:51 AM,100.9,35.1,10,29.78,10.0,SW,5.8,-,N/A,,Partly Cloudy,230,2013-06-15 18:51:00
12:51 PM,102.0,33.1,9,29.75,10.0,Variable,3.5,-,N/A,,Partly Cloudy,0,2013-06-15 19:51:00
1:51 PM,104.0,36.0,10,29.73,10.0,WNW,8.1,-,N/A,,Partly Cloudy,290,2013-06-15 20:51:00
2:51 PM,104.0,37.9,10,29.70,10.0,Variable,3.5,-,N/A,,Partly Cloudy,0,2013-06-15 21:51:00
3:51 PM,105.1,35.1,9,29.68,10.0,West,11.5,23.0,N/A,,Partly Cloudy,270,2013-06-15 22:51:00
4:51 PM,106.0,34.0,8,29.66,10.0,West,16.1,-,N/A,,Partly Cloudy,270,2013-06-15 23:51:00
5:51 PM,105.1,32.0,8,29.66,10.0,West,13.8,-,N/A,,Partly Cloudy,280,2013-06-16 00:51:00
6:51 PM,104.0,35.1,9,29.68,10.0,West,15.0,-,N/A,,Partly Cloudy,280,2013-06-16 01:51:00
7:51 PM,102.0,34.0,9,29.69,10.0,West,12.7,-,N/A,,Partly Cloudy,270,2013-06-16 02:51:00
8:51 PM,99.0,30.9,9,29.71,10.0,West,8.1,-,N/A,,Partly Cloudy,260,2013-06-16 03:51:00
9:51 PM,97.0,32.0,10,29.73,10.0,WSW,5.8,-,N/A,,Partly Cloudy,250,2013-06-16 04:51:00
10:51 PM,95.0,32.0,11,29.73,10.0,West,8.1,-,N/A,,Clear,260,2013-06-16 05:51:00
11:51 PM,93.9,28.9,10,29.74,10.0,West,9.2,-,N/A,,Clear,260,2013-06-16 06:51:00